Year,Month,Day,Hour,Minute,Value (Times are PST for temperature in C)
2015,06,15,00,00,16.20
2015,06,15,00,01,16.20
2015,06,15,00,02,16.20
2015,06,15,00,03,16.10
2015,06,15,00,04,16.00
2015,06,15,00,05,16.00
2015,06,15,00,06,15.90
2015,06,15,00,07,15.80
2015,06,15,00,08,15.80
2015,06,15,00,09,15.70
2015,06,15,00,10,15.70
2015,06,15,00,11,15.60
2015,06,15,00,12,15.60
2015,06,15,00,13,15.50
2015,06,15,00,14,15.50
2015,06,15,00,15,15.40
2015,06,15,00,16,15.40
2015,06,15,00,17,15.30
2015,06,15,00,18,15.30
2015,06,15,00,19,15.30
2015,06,15,00,20,15.30
2015,06,15,00,21,15.20
2015,06,15,00,22,15.20
2015,06,15,00,23,15.20
2015,06,15,00,24,15.20
2015,06,15,00,25,15.10
2015,06,15,00,26,15.10
2015,06,15,00,27,15.00
2015,06,15,00,28,15.00
2015,06,15,00,29,14.90
2015,06,15,00,30,14.90
2015,06,15,00,31,14.80
2015,06,15,00,32,14.80
2015,06,15,00,33,14.70
2015,06,15,00,34,14.70
2015,06,15,00,35,14.70
2015,06,15,00,36,14.70
2015,06,15,00,37,14.70
2015,06,15,00,38,14.70
2015,06,15,00,39,14.70
2015,06,15,00,40,14.70
2015,06,15,00,41,14.70
2015,06,15,00,42,14.70
2015,06,15,00,43,14.70
2015,06,15,00,44,14.70
2015,06,15,00,45,14.70
2015,06,15,00,46,14.70
2015,06,15,00,47,14.70
2015,06,15,00,48,14.70
2015,06,15,00,49,14.70
2015,06,15,00,50,14.70
2015,06,15,00,51,14.60
2015,06,15,00,52,14.60
2015,06,15,00,53,14.60
2015,06,15,00,54,14.60
2015,06,15,00,55,14.60
2015,06,15,00,56,14.60
2015,06,15,00,57,14.60
2015,06,15,00,58,14.60
2015,06,15,00,59,14.60
2015,06,15,01,00,14.60
2015,06,15,01,01,14.50
2015,06,15,01,02,14.50
2015,06,15,01,03,14.50
2015,06,15,01,04,14.50
2015,06,15,01,05,14.40
2015,06,15,01,06,14.40
2015,06,15,01,07,14.40
2015,06,15,01,08,14.40
2015,06,15,01,09,14.30
2015,06,15,01,10,14.30
2015,06,15,01,11,14.30
2015,06,15,01,12,14.20
2015,06,15,01,13,14.20
2015,06,15,01,14,14.20
2015,06,15,01,15,14.20
2015,06,15,01,16,14.20
2015,06,15,01,17,14.20
2015,06,15,01,18,14.20
2015,06,15,01,19,14.20
2015,06,15,01,20,14.20
2015,06,15,01,21,14.10
2015,06,15,01,22,14.10
2015,06,15,01,23,14.10
2015,06,15,01,24,14.10
2015,06,15,01,25,14.10
2015,06,15,01,26,14.10
2015,06,15,01,27,14.10
2015,06,15,01,28,14.00
2015,06,15,01,29,14.00
2015,06,15,01,30,14.00
2015,06,15,01,31,13.90
2015,06,15,01,32,13.90
2015,06,15,01,33,13.90
2015,06,15,01,34,13.80
2015,06,15,01,35,13.80
2015,06,15,01,36,13.80
2015,06,15,01,37,13.80
2015,06,15,01,38,13.70
2015,06,15,01,39,13.70
2015,06,15,01,40,13.70
2015,06,15,01,41,13.60
2015,06,15,01,42,13.60
2015,06,15,01,43,13.60
2015,06,15,01,44,13.60
2015,06,15,01,45,13.60
2015,06,15,01,46,13.60
2015,06,15,01,47,13.60
2015,06,15,01,48,13.50
2015,06,15,01,49,13.50
2015,06,15,01,50,13.50
2015,06,15,01,51,13.50
2015,06,15,01,52,13.50
2015,06,15,01,53,13.40
2015,06,15,01,54,13.40
2015,06,15,01,55,13.40
2015,06,15,01,56,13.40
2015,06,15,01,57,13.40
2015,06,15,01,58,13.30
2015,06,15,01,59,13.30
2015,06,15,02,00,13.30
2015,06,15,02,01,13.30
2015,06,15,02,02,13.30
2015,06,15,02,03,13.30
2015,06,15,02,04,13.30
2015,06,15,02,05,13.30
2015,06,15,02,06,13.30
2015,06,15,02,07,13.30
2015,06,15,02,08,13.30
2015,06,15,02,09,13.20
2015,06,15,02,10,13.20
2015,06,15,02,11,13.20
2015,06,15,02,12,13.20
2015,06,15,02,13,13.10
2015,06,15,02,14,13.10
2015,06,15,02,15,13.10
2015,06,15,02,16,13.10
2015,06,15,02,17,13.10
2015,06,15,02,18,13.00
2015,06,15,02,19,13.00
2015,06,15,02,20,13.00
2015,06,15,02,21,12.90
2015,06,15,02,22,12.90
2015,06,15,02,23,12.90
2015,06,15,02,24,12.90
2015,06,15,02,25,12.90
2015,06,15,02,26,12.90
2015,06,15,02,27,12.90
2015,06,15,02,28,12.90
2015,06,15,02,29,12.80
2015,06,15,02,30,12.80
2015,06,15,02,31,12.80
2015,06,15,02,32,12.80
2015,06,15,02,33,12.80
2015,06,15,02,34,12.80
2015,06,15,02,35,12.80
2015,06,15,02,36,12.80
2015,06,15,02,37,12.80
2015,06,15,02,38,12.70
2015,06,15,02,39,12.70
2015,06,15,02,40,12.70
2015,06,15,02,41,12.70
2015,06,15,02,42,12.60
2015,06,15,02,43,12.60
2015,06,15,02,44,12.60
2015,06,15,02,45,12.60
2015,06,15,02,46,12.60
2015,06,15,02,47,12.60
2015,06,15,02,48,12.50
2015,06,15,02,49,12.50
2015,06,15,02,50,12.50
2015,06,15,02,51,12.40
2015,06,15,02,52,12.40
2015,06,15,02,53,12.40
2015,06,15,02,54,12.40
2015,06,15,02,55,12.40
2015,06,15,02,56,12.40
2015,06,15,02,57,12.40
2015,06,15,02,58,12.30
2015,06,15,02,59,12.30
2015,06,15,03,00,12.30
2015,06,15,03,01,12.30
2015,06,15,03,02,12.30
2015,06,15,03,03,12.20
2015,06,15,03,04,12.20
2015,06,15,03,05,12.20
2015,06,15,03,06,12.20
2015,06,15,03,07,12.20
2015,06,15,03,08,12.20
2015,06,15,03,09,12.20
2015,06,15,03,10,12.20
2015,06,15,03,11,12.20
2015,06,15,03,12,12.20
2015,06,15,03,13,12.10
2015,06,15,03,14,12.10
2015,06,15,03,15,12.10
2015,06,15,03,16,12.10
2015,06,15,03,17,12.10
2015,06,15,03,18,12.10
2015,06,15,03,19,12.10
2015,06,15,03,20,12.10
2015,06,15,03,21,12.10
2015,06,15,03,22,12.00
2015,06,15,03,23,12.00
2015,06,15,03,24,12.00
2015,06,15,03,25,12.00
2015,06,15,03,26,12.00
2015,06,15,03,27,12.00
2015,06,15,03,28,12.00
2015,06,15,03,29,12.10
2015,06,15,03,30,12.00
2015,06,15,03,31,12.00
2015,06,15,03,32,12.00
2015,06,15,03,33,11.90
2015,06,15,03,34,11.90
2015,06,15,03,35,11.90
2015,06,15,03,36,11.90
2015,06,15,03,37,11.80
2015,06,15,03,38,11.80
2015,06,15,03,39,11.80
2015,06,15,03,40,11.80
2015,06,15,03,41,11.80
2015,06,15,03,42,11.80
2015,06,15,03,43,11.70
2015,06,15,03,44,11.70
2015,06,15,03,45,11.70
2015,06,15,03,46,11.70
2015,06,15,03,47,11.70
2015,06,15,03,48,11.70
2015,06,15,03,49,11.70
2015,06,15,03,50,11.70
2015,06,15,03,51,11.60
2015,06,15,03,52,11.60
2015,06,15,03,53,11.60
2015,06,15,03,54,11.60
2015,06,15,03,55,11.60
2015,06,15,03,56,11.60
2015,06,15,03,57,11.60
2015,06,15,03,58,11.60
2015,06,15,03,59,11.60
2015,06,15,04,00,11.60
2015,06,15,04,01,11.60
2015,06,15,04,02,11.60
2015,06,15,04,03,11.60
2015,06,15,04,04,11.60
2015,06,15,04,05,11.60
2015,06,15,04,06,11.60
2015,06,15,04,07,11.50
2015,06,15,04,08,11.50
2015,06,15,04,09,11.50
2015,06,15,04,10,11.50
2015,06,15,04,11,11.50
2015,06,15,04,12,11.50
2015,06,15,04,13,11.40
2015,06,15,04,14,11.40
2015,06,15,04,15,11.40
2015,06,15,04,16,11.40
2015,06,15,04,17,11.40
2015,06,15,04,18,11.30
2015,06,15,04,19,11.30
2015,06,15,04,20,11.30
2015,06,15,04,21,11.30
2015,06,15,04,22,11.20
2015,06,15,04,23,11.20
2015,06,15,04,24,11.20
2015,06,15,04,25,11.20
2015,06,15,04,26,11.20
2015,06,15,04,27,11.20
2015,06,15,04,28,11.20
2015,06,15,04,29,11.20
2015,06,15,04,30,11.20
2015,06,15,04,31,11.20
2015,06,15,04,32,11.20
2015,06,15,04,33,11.20
2015,06,15,04,34,11.20
2015,06,15,04,35,11.20
2015,06,15,04,36,11.20
2015,06,15,04,37,11.20
2015,06,15,04,38,11.20
2015,06,15,04,39,11.20
2015,06,15,04,40,11.20
2015,06,15,04,41,11.20
2015,06,15,04,42,11.20
2015,06,15,04,43,11.20
2015,06,15,04,44,11.30
2015,06,15,04,45,11.30
2015,06,15,04,46,11.30
2015,06,15,04,47,11.30
2015,06,15,04,48,11.30
2015,06,15,04,49,11.30
2015,06,15,04,50,11.20
2015,06,15,04,51,11.20
2015,06,15,04,52,11.20
2015,06,15,04,53,11.20
2015,06,15,04,54,11.10
2015,06,15,04,55,11.10
2015,06,15,04,56,11.10
2015,06,15,04,57,11.10
2015,06,15,04,58,11.10
2015,06,15,04,59,11.00
2015,06,15,05,00,11.00
2015,06,15,05,01,11.00
2015,06,15,05,02,11.00
2015,06,15,05,03,10.90
2015,06,15,05,04,10.90
2015,06,15,05,05,10.80
2015,06,15,05,06,10.80
2015,06,15,05,07,10.80
2015,06,15,05,08,10.80
2015,06,15,05,09,10.80
2015,06,15,05,10,10.80
2015,06,15,05,11,10.80
2015,06,15,05,12,10.80
2015,06,15,05,13,10.80
2015,06,15,05,14,10.80
2015,06,15,05,15,10.80
2015,06,15,05,16,10.80
2015,06,15,05,17,10.80
2015,06,15,05,18,10.80
2015,06,15,05,19,10.80
2015,06,15,05,20,10.80
2015,06,15,05,21,10.80
2015,06,15,05,22,10.80
2015,06,15,05,23,10.80
2015,06,15,05,24,10.80
2015,06,15,05,25,10.80
2015,06,15,05,26,10.80
2015,06,15,05,27,10.80
2015,06,15,05,28,10.80
2015,06,15,05,29,10.80
2015,06,15,05,30,10.90
2015,06,15,05,31,10.90
2015,06,15,05,32,10.90
2015,06,15,05,33,10.90
2015,06,15,05,34,10.90
2015,06,15,05,35,10.90
2015,06,15,05,36,11.00
2015,06,15,05,37,11.00
2015,06,15,05,38,11.00
2015,06,15,05,39,11.00
2015,06,15,05,40,11.00
2015,06,15,05,41,11.00
2015,06,15,05,42,11.00
2015,06,15,05,43,11.00
2015,06,15,05,44,10.90
2015,06,15,05,45,10.90
2015,06,15,05,46,10.90
2015,06,15,05,47,11.00
2015,06,15,05,48,11.00
2015,06,15,05,49,11.00
2015,06,15,05,50,11.00
2015,06,15,05,51,11.00
2015,06,15,05,52,11.10
2015,06,15,05,53,11.10
2015,06,15,05,54,11.10
2015,06,15,05,55,11.10
2015,06,15,05,56,11.10
2015,06,15,05,57,11.20
2015,06,15,05,58,11.20
2015,06,15,05,59,11.20
2015,06,15,06,00,11.30
2015,06,15,06,01,11.30
2015,06,15,06,02,11.30
2015,06,15,06,03,11.30
2015,06,15,06,04,11.40
2015,06,15,06,05,11.40
2015,06,15,06,06,11.40
2015,06,15,06,07,11.50
2015,06,15,06,08,11.50
2015,06,15,06,09,11.60
2015,06,15,06,10,11.60
2015,06,15,06,11,11.60
2015,06,15,06,12,11.60
2015,06,15,06,13,11.70
2015,06,15,06,14,11.70
2015,06,15,06,15,11.80
2015,06,15,06,16,11.90
2015,06,15,06,17,11.90
2015,06,15,06,18,11.90
2015,06,15,06,19,12.00
2015,06,15,06,20,12.00
2015,06,15,06,21,12.00
2015,06,15,06,22,12.00
2015,06,15,06,23,12.10
2015,06,15,06,24,12.10
2015,06,15,06,25,12.10
2015,06,15,06,26,12.10
2015,06,15,06,27,12.20
2015,06,15,06,28,12.20
2015,06,15,06,29,12.20
2015,06,15,06,30,12.20
2015,06,15,06,31,12.30
2015,06,15,06,32,12.30
2015,06,15,06,33,12.40
2015,06,15,06,34,12.40
2015,06,15,06,35,12.50
2015,06,15,06,36,12.50
2015,06,15,06,37,12.60
2015,06,15,06,38,12.70
2015,06,15,06,39,12.70
2015,06,15,06,40,12.80
2015,06,15,06,41,12.90
2015,06,15,06,42,12.90
2015,06,15,06,43,13.00
2015,06,15,06,44,13.10
2015,06,15,06,45,13.10
2015,06,15,06,46,13.20
2015,06,15,06,47,13.30
2015,06,15,06,48,13.30
2015,06,15,06,49,13.40
2015,06,15,06,50,13.40
2015,06,15,06,51,13.50
2015,06,15,06,52,13.50
2015,06,15,06,53,13.60
2015,06,15,06,54,13.60
2015,06,15,06,55,13.70
2015,06,15,06,56,13.70
2015,06,15,06,57,13.80
2015,06,15,06,58,13.90
2015,06,15,06,59,14.00
2015,06,15,07,00,14.00
2015,06,15,07,01,14.10
2015,06,15,07,02,14.10
2015,06,15,07,03,14.20
2015,06,15,07,04,14.20
2015,06,15,07,05,14.30
2015,06,15,07,06,14.30
2015,06,15,07,07,14.30
2015,06,15,07,08,14.40
2015,06,15,07,09,14.50
2015,06,15,07,10,14.60
2015,06,15,07,11,14.60
2015,06,15,07,12,14.70
2015,06,15,07,13,14.70
2015,06,15,07,14,14.70
2015,06,15,07,15,14.70
2015,06,15,07,16,14.70
2015,06,15,07,17,14.70
2015,06,15,07,18,14.70
2015,06,15,07,19,14.70
2015,06,15,07,20,14.70
2015,06,15,07,21,14.70
2015,06,15,07,22,14.80
2015,06,15,07,23,14.80
2015,06,15,07,24,14.80
2015,06,15,07,25,14.80
2015,06,15,07,26,14.80
2015,06,15,07,27,14.80
2015,06,15,07,28,14.80
2015,06,15,07,29,14.80
2015,06,15,07,30,14.90
2015,06,15,07,31,14.90
2015,06,15,07,32,14.90
2015,06,15,07,33,14.90
2015,06,15,07,34,14.90
2015,06,15,07,35,14.90
2015,06,15,07,36,14.90
2015,06,15,07,37,14.90
2015,06,15,07,38,15.00
2015,06,15,07,39,15.00
2015,06,15,07,40,15.10
2015,06,15,07,41,15.10
2015,06,15,07,42,15.10
2015,06,15,07,43,15.20
2015,06,15,07,44,15.20
2015,06,15,07,45,15.20
2015,06,15,07,46,15.30
2015,06,15,07,47,15.30
2015,06,15,07,48,15.30
2015,06,15,07,49,15.40
2015,06,15,07,50,15.40
2015,06,15,07,51,15.40
2015,06,15,07,52,15.40
2015,06,15,07,53,15.40
2015,06,15,07,54,15.50
2015,06,15,07,55,15.50
2015,06,15,07,56,15.50
2015,06,15,07,57,15.60
2015,06,15,07,58,15.70
2015,06,15,07,59,15.70
2015,06,15,08,00,15.70
2015,06,15,08,01,15.80
2015,06,15,08,02,15.80
2015,06,15,08,03,15.90
2015,06,15,08,04,16.00
2015,06,15,08,05,16.00
2015,06,15,08,06,16.10
2015,06,15,08,07,16.10
2015,06,15,08,08,16.20
2015,06,15,08,09,16.20
2015,06,15,08,10,16.30
2015,06,15,08,11,16.30
2015,06,15,08,12,16.40
2015,06,15,08,13,16.50
2015,06,15,08,14,16.50
2015,06,15,08,15,16.60
2015,06,15,08,16,16.70
2015,06,15,08,17,16.80
2015,06,15,08,18,16.80
2015,06,15,08,19,16.80
2015,06,15,08,20,16.90
2015,06,15,08,21,16.90
2015,06,15,08,22,16.90
2015,06,15,08,23,17.00
2015,06,15,08,24,17.00
2015,06,15,08,25,17.00
2015,06,15,08,26,17.00
2015,06,15,08,27,17.00
2015,06,15,08,28,17.00
2015,06,15,08,29,17.10
2015,06,15,08,30,17.10
2015,06,15,08,31,17.10
2015,06,15,08,32,17.10
2015,06,15,08,33,17.20
2015,06,15,08,34,17.20
2015,06,15,08,35,17.30
2015,06,15,08,36,17.30
2015,06,15,08,37,17.30
2015,06,15,08,38,17.40
2015,06,15,08,39,17.40
2015,06,15,08,40,17.50
2015,06,15,08,41,17.60
2015,06,15,08,42,17.60
2015,06,15,08,43,17.60
2015,06,15,08,44,17.70
2015,06,15,08,45,17.70
2015,06,15,08,46,17.70
2015,06,15,08,47,17.70
2015,06,15,08,48,17.70
2015,06,15,08,49,17.70
2015,06,15,08,50,17.80
2015,06,15,08,51,17.80
2015,06,15,08,52,17.90
2015,06,15,08,53,17.90
2015,06,15,08,54,18.00
2015,06,15,08,55,18.10
2015,06,15,08,56,18.10
2015,06,15,08,57,18.20
2015,06,15,08,58,18.30
2015,06,15,08,59,18.30
2015,06,15,09,00,18.40
2015,06,15,09,01,18.40
2015,06,15,09,02,18.40
2015,06,15,09,03,18.50
2015,06,15,09,04,18.50
2015,06,15,09,05,18.60
2015,06,15,09,06,18.70
2015,06,15,09,07,18.80
2015,06,15,09,08,18.90
2015,06,15,09,09,19.00
2015,06,15,09,10,19.00
2015,06,15,09,11,19.10
2015,06,15,09,12,19.10
2015,06,15,09,13,19.20
2015,06,15,09,14,19.20
2015,06,15,09,15,19.20
2015,06,15,09,16,19.30
2015,06,15,09,17,19.30
2015,06,15,09,18,19.30
2015,06,15,09,19,19.40
2015,06,15,09,20,19.40
2015,06,15,09,21,19.40
2015,06,15,09,22,19.40
2015,06,15,09,23,19.40
2015,06,15,09,24,19.50
2015,06,15,09,25,19.50
2015,06,15,09,26,19.60
2015,06,15,09,27,19.60
2015,06,15,09,28,19.60
2015,06,15,09,29,19.60
2015,06,15,09,30,19.70
2015,06,15,09,31,19.70
2015,06,15,09,32,19.70
2015,06,15,09,33,19.80
2015,06,15,09,34,19.80
2015,06,15,09,35,19.90
2015,06,15,09,36,19.90
2015,06,15,09,37,20.00
2015,06,15,09,38,20.10
2015,06,15,09,39,20.10
2015,06,15,09,40,20.20
2015,06,15,09,41,20.20
2015,06,15,09,42,20.20
2015,06,15,09,43,20.20
2015,06,15,09,44,20.30
2015,06,15,09,45,20.30
2015,06,15,09,46,20.40
2015,06,15,09,47,20.40
2015,06,15,09,48,20.40
2015,06,15,09,49,20.40
2015,06,15,09,50,20.40
2015,06,15,09,51,20.40
2015,06,15,09,52,20.40
2015,06,15,09,53,20.40
2015,06,15,09,54,20.40
2015,06,15,09,55,20.50
2015,06,15,09,56,20.50
2015,06,15,09,57,20.50
2015,06,15,09,58,20.60
2015,06,15,09,59,20.60
2015,06,15,10,00,20.60
2015,06,15,10,01,20.60
2015,06,15,10,02,20.60
2015,06,15,10,03,20.60
2015,06,15,10,04,20.60
2015,06,15,10,05,20.60
2015,06,15,10,06,20.70
2015,06,15,10,07,20.70
2015,06,15,10,08,20.80
2015,06,15,10,09,20.80
2015,06,15,10,10,20.90
2015,06,15,10,11,21.00
2015,06,15,10,12,21.00
2015,06,15,10,13,21.10
2015,06,15,10,14,21.10
2015,06,15,10,15,21.10
2015,06,15,10,16,21.20
2015,06,15,10,17,21.20
2015,06,15,10,18,21.20
2015,06,15,10,19,21.20
2015,06,15,10,20,21.20
2015,06,15,10,21,21.20
2015,06,15,10,22,21.20
2015,06,15,10,23,21.20
2015,06,15,10,24,21.20
2015,06,15,10,25,21.20
2015,06,15,10,26,21.20
2015,06,15,10,27,21.20
2015,06,15,10,28,21.30
2015,06,15,10,29,21.30
2015,06,15,10,30,21.40
2015,06,15,10,31,21.50
2015,06,15,10,32,21.50
2015,06,15,10,33,21.50
2015,06,15,10,34,21.50
2015,06,15,10,35,21.60
2015,06,15,10,36,21.60
2015,06,15,10,37,21.60
2015,06,15,10,38,21.60
2015,06,15,10,39,21.60
2015,06,15,10,40,21.60
2015,06,15,10,41,21.70
2015,06,15,10,42,21.70
2015,06,15,10,43,21.70
2015,06,15,10,44,21.70
2015,06,15,10,45,21.70
2015,06,15,10,46,21.80
2015,06,15,10,47,21.80
2015,06,15,10,48,21.80
2015,06,15,10,49,21.80
2015,06,15,10,50,21.90
2015,06,15,10,51,21.90
2015,06,15,10,52,21.90
2015,06,15,10,53,21.90
2015,06,15,10,54,21.90
2015,06,15,10,55,22.00
2015,06,15,10,56,22.00
2015,06,15,10,57,22.00
2015,06,15,10,58,22.00
2015,06,15,10,59,22.10
2015,06,15,11,00,22.10
2015,06,15,11,01,22.10
2015,06,15,11,02,22.20
2015,06,15,11,03,22.30
2015,06,15,11,04,22.30
2015,06,15,11,05,22.30
2015,06,15,11,06,22.30
2015,06,15,11,07,22.30
2015,06,15,11,08,22.30
2015,06,15,11,09,22.30
2015,06,15,11,10,22.30
2015,06,15,11,11,22.40
2015,06,15,11,12,22.40
2015,06,15,11,13,22.50
2015,06,15,11,14,22.60
2015,06,15,11,15,22.70
2015,06,15,11,16,22.70
2015,06,15,11,17,22.70
2015,06,15,11,18,22.70
2015,06,15,11,19,22.70
2015,06,15,11,20,22.70
2015,06,15,11,21,22.80
2015,06,15,11,22,22.80
2015,06,15,11,23,22.80
2015,06,15,11,24,22.80
2015,06,15,11,25,22.90
2015,06,15,11,26,22.90
2015,06,15,11,27,23.00
2015,06,15,11,28,23.00
2015,06,15,11,29,23.10
2015,06,15,11,30,23.10
2015,06,15,11,31,23.10
2015,06,15,11,32,23.00
2015,06,15,11,33,23.00
2015,06,15,11,34,22.90
2015,06,15,11,35,22.90
2015,06,15,11,36,22.80
2015,06,15,11,37,22.80
2015,06,15,11,38,22.70
2015,06,15,11,39,22.60
2015,06,15,11,40,22.50
2015,06,15,11,41,22.50
2015,06,15,11,42,22.40
2015,06,15,11,43,22.40
2015,06,15,11,44,22.40
2015,06,15,11,45,22.40
2015,06,15,11,46,22.40
2015,06,15,11,47,22.40
2015,06,15,11,48,22.40
2015,06,15,11,49,22.30
2015,06,15,11,50,22.30
2015,06,15,11,51,22.30
2015,06,15,11,52,22.30
2015,06,15,11,53,22.30
2015,06,15,11,54,22.20
2015,06,15,11,55,22.20
2015,06,15,11,56,22.10
2015,06,15,11,57,22.10
2015,06,15,11,58,22.00
2015,06,15,11,59,22.00
2015,06,15,12,00,22.00
2015,06,15,12,01,22.00
2015,06,15,12,02,22.10
2015,06,15,12,03,22.00
2015,06,15,12,04,22.00
2015,06,15,12,05,22.00
2015,06,15,12,06,21.90
2015,06,15,12,07,21.90
2015,06,15,12,08,21.90
2015,06,15,12,09,21.80
2015,06,15,12,10,21.90
2015,06,15,12,11,21.90
2015,06,15,12,12,22.00
2015,06,15,12,13,22.10
2015,06,15,12,14,22.10
2015,06,15,12,15,22.20
2015,06,15,12,16,22.30
2015,06,15,12,17,22.30
2015,06,15,12,18,22.30
2015,06,15,12,19,22.30
2015,06,15,12,20,22.30
2015,06,15,12,21,22.30
2015,06,15,12,22,22.30
2015,06,15,12,23,22.40
2015,06,15,12,24,22.40
2015,06,15,12,25,22.50
2015,06,15,12,26,22.50
2015,06,15,12,27,22.60
2015,06,15,12,28,22.60
2015,06,15,12,29,22.70
2015,06,15,12,30,22.80
2015,06,15,12,31,22.80
2015,06,15,12,32,22.80
2015,06,15,12,33,22.80
2015,06,15,12,34,22.80
2015,06,15,12,35,22.80
2015,06,15,12,36,22.90
2015,06,15,12,37,22.90
2015,06,15,12,38,23.00
2015,06,15,12,39,23.00
2015,06,15,12,40,23.10
2015,06,15,12,41,23.10
2015,06,15,12,42,23.10
2015,06,15,12,43,23.10
2015,06,15,12,44,22.90
2015,06,15,12,45,22.80
2015,06,15,12,46,22.60
2015,06,15,12,47,22.50
2015,06,15,12,48,22.40
2015,06,15,12,49,22.30
2015,06,15,12,50,22.20
2015,06,15,12,51,22.10
2015,06,15,12,52,22.10
2015,06,15,12,53,22.00
2015,06,15,12,54,22.00
2015,06,15,12,55,22.10
2015,06,15,12,56,22.10
2015,06,15,12,57,22.20
2015,06,15,12,58,22.30
2015,06,15,12,59,22.40
2015,06,15,13,00,22.40
2015,06,15,13,01,22.50
2015,06,15,13,02,22.60
2015,06,15,13,03,22.60
2015,06,15,13,04,22.70
2015,06,15,13,05,22.70
2015,06,15,13,06,22.80
2015,06,15,13,07,22.80
2015,06,15,13,08,22.80
2015,06,15,13,09,22.70
2015,06,15,13,10,22.70
2015,06,15,13,11,22.70
2015,06,15,13,12,22.70
2015,06,15,13,13,22.70
2015,06,15,13,14,22.80
2015,06,15,13,15,22.90
2015,06,15,13,16,23.00
2015,06,15,13,17,23.20
2015,06,15,13,18,23.30
2015,06,15,13,19,23.40
2015,06,15,13,20,23.50
2015,06,15,13,21,23.60
2015,06,15,13,22,23.50
2015,06,15,13,23,23.50
2015,06,15,13,24,23.50
2015,06,15,13,25,23.60
2015,06,15,13,26,23.60
2015,06,15,13,27,23.70
2015,06,15,13,28,23.80
2015,06,15,13,29,23.90
2015,06,15,13,30,24.10
2015,06,15,13,31,24.20
2015,06,15,13,32,24.40
2015,06,15,13,33,24.50
2015,06,15,13,34,24.50
2015,06,15,13,35,24.60
2015,06,15,13,36,24.60
2015,06,15,13,37,24.60
2015,06,15,13,38,24.60
2015,06,15,13,39,24.60
2015,06,15,13,40,24.60
2015,06,15,13,41,24.70
2015,06,15,13,42,24.80
2015,06,15,13,43,24.90
2015,06,15,13,44,25.00
2015,06,15,13,45,25.10
2015,06,15,13,46,25.20
2015,06,15,13,47,25.10
2015,06,15,13,48,25.10
2015,06,15,13,49,25.00
2015,06,15,13,50,25.00
2015,06,15,13,51,25.00
2015,06,15,13,52,24.90
2015,06,15,13,53,25.00
2015,06,15,13,54,25.10
2015,06,15,13,55,25.10
2015,06,15,13,56,25.20
2015,06,15,13,57,25.30
2015,06,15,13,58,25.30
2015,06,15,13,59,25.30
2015,06,15,14,00,25.30
2015,06,15,14,01,25.40
2015,06,15,14,02,25.40
2015,06,15,14,03,25.40
2015,06,15,14,04,25.40
2015,06,15,14,05,25.40
2015,06,15,14,06,25.40
2015,06,15,14,07,25.40
2015,06,15,14,08,25.40
2015,06,15,14,09,25.40
2015,06,15,14,10,25.20
2015,06,15,14,11,25.10
2015,06,15,14,12,25.00
2015,06,15,14,13,25.00
2015,06,15,14,14,24.90
2015,06,15,14,15,24.80
2015,06,15,14,16,24.70
2015,06,15,14,17,24.50
2015,06,15,14,18,24.30
2015,06,15,14,19,24.10
2015,06,15,14,20,24.00
2015,06,15,14,21,23.90
2015,06,15,14,22,23.90
2015,06,15,14,23,23.80
2015,06,15,14,24,23.70
2015,06,15,14,25,23.60
2015,06,15,14,26,23.60
2015,06,15,14,27,23.50
2015,06,15,14,28,23.50
2015,06,15,14,29,23.40
2015,06,15,14,30,23.40
2015,06,15,14,31,23.40
2015,06,15,14,32,23.50
2015,06,15,14,33,23.50
2015,06,15,14,34,23.60
2015,06,15,14,35,23.70
2015,06,15,14,36,23.80
2015,06,15,14,37,23.90
2015,06,15,14,38,24.00
2015,06,15,14,39,24.10
2015,06,15,14,40,24.20
2015,06,15,14,41,24.20
2015,06,15,14,42,24.30
2015,06,15,14,43,24.30
2015,06,15,14,44,24.30
2015,06,15,14,45,24.30
2015,06,15,14,46,24.30
2015,06,15,14,47,24.30
2015,06,15,14,48,24.30
2015,06,15,14,49,24.30
2015,06,15,14,50,24.30
2015,06,15,14,51,24.40
2015,06,15,14,52,24.50
2015,06,15,14,53,24.50
2015,06,15,14,54,24.60
2015,06,15,14,55,24.70
2015,06,15,14,56,24.70
2015,06,15,14,57,24.60
2015,06,15,14,58,24.40
2015,06,15,14,59,24.30
2015,06,15,15,00,24.30
2015,06,15,15,01,24.30
2015,06,15,15,02,24.30
2015,06,15,15,03,24.40
2015,06,15,15,04,24.40
2015,06,15,15,05,24.30
2015,06,15,15,06,24.30
2015,06,15,15,07,24.20
2015,06,15,15,08,24.20
2015,06,15,15,09,24.10
2015,06,15,15,10,24.10
2015,06,15,15,11,24.10
2015,06,15,15,12,24.10
2015,06,15,15,13,24.20
2015,06,15,15,14,24.30
2015,06,15,15,15,24.30
2015,06,15,15,16,24.40
2015,06,15,15,17,24.50
2015,06,15,15,18,24.60
2015,06,15,15,19,24.70
2015,06,15,15,20,24.80
2015,06,15,15,21,24.90
2015,06,15,15,22,24.90
2015,06,15,15,23,24.90
2015,06,15,15,24,25.00
2015,06,15,15,25,25.00
2015,06,15,15,26,25.10
2015,06,15,15,27,25.10
2015,06,15,15,28,25.10
2015,06,15,15,29,25.10
2015,06,15,15,30,25.00
2015,06,15,15,31,25.00
2015,06,15,15,32,25.00
2015,06,15,15,33,25.00
2015,06,15,15,34,25.00
2015,06,15,15,35,25.10
2015,06,15,15,36,25.10
2015,06,15,15,37,25.20
2015,06,15,15,38,25.20
2015,06,15,15,39,25.20
2015,06,15,15,40,25.20
2015,06,15,15,41,25.20
2015,06,15,15,42,25.10
2015,06,15,15,43,25.00
2015,06,15,15,44,25.00
2015,06,15,15,45,24.90
2015,06,15,15,46,24.80
2015,06,15,15,47,24.70
2015,06,15,15,48,24.60
2015,06,15,15,49,24.50
2015,06,15,15,50,24.40
2015,06,15,15,51,24.40
2015,06,15,15,52,24.30
2015,06,15,15,53,24.20
2015,06,15,15,54,24.20
2015,06,15,15,55,24.10
2015,06,15,15,56,24.20
2015,06,15,15,57,24.20
2015,06,15,15,58,24.20
2015,06,15,15,59,24.30
2015,06,15,16,00,24.40
2015,06,15,16,01,24.40
2015,06,15,16,02,24.50
2015,06,15,16,03,24.60
2015,06,15,16,04,24.70
2015,06,15,16,05,24.70
2015,06,15,16,06,24.80
2015,06,15,16,07,24.90
2015,06,15,16,08,24.90
2015,06,15,16,09,25.00
2015,06,15,16,10,25.10
2015,06,15,16,11,25.20
2015,06,15,16,12,25.20
2015,06,15,16,13,25.20
2015,06,15,16,14,25.30
2015,06,15,16,15,25.30
2015,06,15,16,16,25.40
2015,06,15,16,17,25.40
2015,06,15,16,18,25.50
2015,06,15,16,19,25.60
2015,06,15,16,20,25.60
2015,06,15,16,21,25.80
2015,06,15,16,22,25.90
2015,06,15,16,23,26.00
2015,06,15,16,24,26.10
2015,06,15,16,25,26.20
2015,06,15,16,26,26.30
2015,06,15,16,27,26.40
2015,06,15,16,28,26.50
2015,06,15,16,29,26.60
2015,06,15,16,30,26.60
2015,06,15,16,31,26.60
2015,06,15,16,32,26.70
2015,06,15,16,33,26.70
2015,06,15,16,34,26.80
2015,06,15,16,35,26.90
2015,06,15,16,36,27.00
2015,06,15,16,37,27.10
2015,06,15,16,38,27.10
2015,06,15,16,39,27.10
2015,06,15,16,40,27.20
2015,06,15,16,41,27.20
2015,06,15,16,42,27.20
2015,06,15,16,43,27.10
2015,06,15,16,44,27.10
2015,06,15,16,45,27.00
2015,06,15,16,46,27.00
2015,06,15,16,47,27.00
2015,06,15,16,48,27.00
2015,06,15,16,49,27.10
2015,06,15,16,50,27.10
2015,06,15,16,51,27.10
2015,06,15,16,52,27.10
2015,06,15,16,53,27.10
2015,06,15,16,54,27.10
2015,06,15,16,55,27.10
2015,06,15,16,56,27.10
2015,06,15,16,57,27.10
2015,06,15,16,58,27.10
2015,06,15,16,59,27.10
2015,06,15,17,00,27.10
2015,06,15,17,01,27.10
2015,06,15,17,02,27.10
2015,06,15,17,03,27.00
2015,06,15,17,04,27.00
2015,06,15,17,05,27.10
2015,06,15,17,06,27.20
2015,06,15,17,07,27.30
2015,06,15,17,08,27.30
2015,06,15,17,09,27.40
2015,06,15,17,10,27.40
2015,06,15,17,11,27.30
2015,06,15,17,12,27.30
2015,06,15,17,13,27.30
2015,06,15,17,14,27.30
2015,06,15,17,15,27.30
2015,06,15,17,16,27.20
2015,06,15,17,17,27.20
2015,06,15,17,18,27.10
2015,06,15,17,19,27.10